Weather History for KNOG - January, 2014

Change the Weather History Date:

Tuesday, January 14, 2014

  Actual Average (KALI) Record (KALI)
Temperature  
Mean Temperature 32 °F -  
Max Temperature 33 °F 66 °F 79 °F (2007)
Min Temperature 32 °F 45 °F 28 °F (1997)
Degree Days  
Heating Degree Days 32    
Moisture  
Dew Point 27 °F    
Average Humidity 81    
Maximum Humidity 100    
Minimum Humidity 66    
Precipitation  
Precipitation 0.00 in - - ()
Sea Level Pressure  
Sea Level Pressure 30.12 in    
Wind  
Wind Speed 7 mph (West)    
Max Wind Speed 15 mph    
Max Gust Speed 22 mph    
Visibility 10 miles    
Events      
Averages and records for this station are not official NWS values.
T = Trace of Precipitation, MM = Missing Value Source: NWS Daily Summary

Daily Weather History Graph

Daily Weather History Graph

Search for Another Location

Airport or City:

Trip Planner

Search our weather history database for the weather conditions in past years. The results will help you decide how hot, cold, wet, or windy it might be!

Date:

Astronomy

Jan. 14, 2014 Rise Set
Actual Time 7:24 AM CST 5:58 PM CST
Civil Twilight 6:59 AM CST 6:23 PM CST
Nautical Twilight 6:30 AM CST 6:52 PM CST
Astronomical Twilight 6:02 AM CST 7:20 PM CST
Moon 5:01 PM CST (1/14) 6:02 AM CST (1/14)
Length of Visible Light 11h 24m
Length of Day
10h 33m
Waxing Gibbous, 98% of the Moon is Illuminated
Jan 14
Waxing Gibbous
Jan 15
Full
Jan 23
Last Quarter
Jan 30
New
Feb 6
First Quarter

Hourly Weather History & Observations

Time (CST) Temp. Windchill Dew Point Humidity Pressure Visibility Wind Dir Wind Speed Gust Speed Precip Events Conditions
12:56 AM 32.0 °F - 27.0 °F 82% 30.10 in 10.0 mi Calm Calm - N/A   Clear
1:56 AM 32.0 °F - 28.9 °F 88% 30.14 in 10.0 mi Calm Calm - N/A   Clear
2:56 AM 32.0 °F 25.6 °F 28.0 °F 85% 30.14 in 10.0 mi West 6.9 mph - N/A   Clear
3:56 AM - - - N/A% 30.14 in 10.0 mi West 8.1 mph - N/A   Clear
4:56 AM - - - N/A% 30.14 in 10.0 mi West 10.4 mph - N/A   Clear
5:56 AM - - - N/A% 30.14 in 10.0 mi West 9.2 mph - N/A   Clear
6:56 AM - - - N/A% 30.14 in 10.0 mi West 9.2 mph - N/A   Clear
7:56 AM - - - N/A% 30.15 in 10.0 mi West 8.1 mph - N/A   Clear
8:56 AM 32.0 °F 25.6 °F 30.9 °F 96% 30.17 in 10.0 mi WSW 6.9 mph - N/A   Clear
9:56 AM 32.0 °F 23.0 °F 32.0 °F 100% 30.18 in 10.0 mi SW 11.5 mph - N/A   Clear
10:56 AM 32.0 °F 22.1 °F 32.0 °F 100% 30.12 in 10.0 mi SSW 13.8 mph - N/A   Clear
11:56 AM 32.0 °F 21.6 °F 30.0 °F 92% 30.08 in 10.0 mi SSW 15.0 mph 21.9 mph N/A   Clear
12:56 PM 32.0 °F 22.5 °F 28.0 °F 85% 30.03 in 10.0 mi SW 12.7 mph - N/A   Clear
1:56 PM 32.0 °F 23.0 °F 27.0 °F 82% 30.00 in 10.0 mi SW 11.5 mph - N/A   Clear
2:56 PM 32.0 °F 24.8 °F 25.0 °F 75% 29.99 in 10.0 mi WSW 8.1 mph - N/A   Clear
3:56 PM 33.1 °F 26.1 °F 25.0 °F 72% 30.05 in 10.0 mi WSW 8.1 mph - N/A   Clear
4:56 PM 33.1 °F 26.9 °F 24.1 °F 70% 30.05 in 10.0 mi WSW 6.9 mph - N/A   Clear
5:56 PM 32.0 °F 24.8 °F 21.9 °F 66% 30.07 in 10.0 mi NNW 8.1 mph - N/A   Clear
6:56 PM 32.0 °F 24.8 °F 23.0 °F 69% 30.11 in 10.0 mi NW 8.1 mph - N/A   Clear
7:56 PM 32.0 °F 23.6 °F 23.0 °F 69% 30.14 in 10.0 mi NNW 10.4 mph - N/A   Clear
8:56 PM 32.0 °F 24.2 °F 23.0 °F 69% 30.12 in 10.0 mi NNW 9.2 mph - N/A   Clear
9:56 PM - - - N/A% 30.24 in 10.0 mi NNE 12.7 mph - 0.00 in   Clear
10:56 PM - - - N/A% 30.26 in 10.0 mi North 9.2 mph - N/A   Clear
11:56 PM - - - N/A% 30.28 in 10.0 mi North 11.5 mph - N/A   Clear